Location: Newark
(39.9581°N, 97.2014°W)
Time: 05:58:37
(UTC+00:00)

Vanguard 1 Rocket - All Passes

Search period start: 25 February 2020 00:00
Search period end: 06 March 2020 00:00
Orbit: 650 x 4226 km, 34.3° (Epoch: 23 February)

Date Brightness Start Highest point End Pass type
(mag) Time Alt. Az. Time Alt. Az. Time Alt. Az.
25 Feb - 04:13:29 10° S 04:19:10 13° SSE 04:23:49 10° SE visible
25 Feb - 06:35:46 10° SW 06:46:32 31° SSE 06:52:54 10° ESE night (unlit)
25 Feb - 09:04:02 10° WSW 09:12:13 49° S 09:17:09 10° ESE visible
25 Feb - 11:31:47 10° W 11:36:42 36° SSW 11:40:43 10° SE visible
26 Feb - 05:23:09 10° SSW 05:34:35 25° SSE 05:41:47 10° ESE visible
26 Feb - 07:50:49 10° WSW 08:01:05 45° S 08:06:50 10° E night (unlit)
26 Feb - 10:19:33 10° W 10:26:05 47° S 10:30:31 10° ESE visible
26 Feb - 12:47:00 10° WSW 12:50:09 18° SSW 12:53:11 10° SSE daylight
27 Feb - 04:11:32 10° S 04:22:12 19° SSE 04:29:39 10° ESE visible
27 Feb - 06:37:18 10° SW 06:49:33 39° SSE 06:56:23 10° E night (unlit)
27 Feb - 09:06:39 10° WSW 09:15:15 53° S 09:20:18 10° ESE visible
27 Feb - 11:34:51 10° W 11:39:39 30° SSW 11:43:31 10° SE visible
28 Feb - 03:02:32 10° SSE 03:09:22 13° SE 03:15:02 10° SE visible
28 Feb - 05:23:54 10° SSW 05:37:35 33° SSE 05:45:32 10° E visible
28 Feb - 07:53:06 10° WSW 08:04:06 52° S 08:10:04 10° E night (unlit)
28 Feb - 10:22:25 10° W 10:29:05 44° SSW 10:33:33 10° ESE visible
28 Feb - 12:50:59 10° WSW 12:52:59 12° SSW 12:54:53 10° S daylight
29 Feb - 04:11:10 10° SSW 04:25:08 26° SSE 04:34:03 10° ESE visible
29 Feb - 06:39:06 10° SW 06:52:33 47° SSE 06:59:42 10° E night (unlit)
29 Feb - 09:09:20 10° W 09:18:16 55° S 09:23:27 10° ESE visible
29 Feb - 11:38:02 10° W 11:42:31 24° SSW 11:46:09 10° SSE visible
01 Mar - 02:59:54 10° S 03:12:16 19° SSE 03:21:14 10° ESE visible
01 Mar - 05:25:05 10° SW 05:40:33 41° SSE 05:49:02 10° E visible
01 Mar - 07:55:31 10° WSW 08:07:06 57° S 08:13:15 10° E night (unlit)
01 Mar - 10:25:19 10° W 10:32:02 39° SSW 10:36:29 10° SE visible
02 Mar - 01:52:25 10° SSE 01:59:04 12° SE 02:04:50 10° ESE visible
02 Mar - 04:11:33 10° SSW 04:28:02 33° SSE 04:37:52 10° E visible
02 Mar - 06:41:08 10° WSW 06:55:31 54° S 07:02:56 10° E visible
02 Mar - 09:12:03 10° W 09:21:15 54° S 09:26:32 10° ESE visible
02 Mar - 11:41:25 10° WSW 11:45:18 18° SSW 11:48:30 10° SSE visible
03 Mar - 02:59:05 10° SSW 03:15:05 26° SSE 03:25:47 10° E visible
03 Mar - 05:26:36 10° SW 05:43:27 48° SSE 05:52:21 10° E visible
03 Mar - 07:58:01 10° WSW 08:10:05 61° S 08:16:24 10° ESE night (unlit)
03 Mar - 10:28:16 10° W 10:34:53 34° SSW 10:39:19 10° SE visible
04 Mar - 01:48:41 10° S 02:01:48 18° SE 02:11:55 10° ESE visible
04 Mar - 04:12:24 10° SW 04:30:52 41° SSE 04:41:22 10° E visible
04 Mar - 06:43:20 10° WSW 06:58:28 60° S 07:06:07 10° E visible
04 Mar - 09:14:47 10° W 09:24:12 50° SSW 09:29:34 10° ESE visible
04 Mar - 11:45:13 10° WSW 11:47:58 13° SW 11:50:21 10° S visible
05 Mar - 00:45:11 10° SE 00:48:21 10° SE 00:51:21 10° SE visible
05 Mar - 02:59:07 10° SSW 03:17:48 33° SSE 03:29:42 10° E visible
05 Mar - 05:28:22 10° WSW 05:46:20 56° SSE 05:55:35 10° E visible
05 Mar - 08:00:34 10° W 08:13:04 61° S 08:19:31 10° ESE night (unlit)
05 Mar - 10:31:18 10° W 10:37:40 28° SSW 10:42:00 10° SSE visible
